Regional Weather Roundup
Issued by NWS Wakefield, VA

Home | Current Version | Previous Version | Graphics & Text | Print | Product List | Glossary On
Versions: 1 2 3 4 5 6 7 8 9 10 11 12 13 14 15 16 17 18 19 20 21 22 23 24 25 26 27 28 29 30 31 32 33 34 35 36 37 38 39 40 41 42 43 44 45 46 47 48 49 50
000
ASUS41 KAKQ 032015
RWRAKQ

REGIONAL WEATHER ROUNDUP
NATIONAL WEATHER SERVICE WAKEFIELD VA
400 PM EDT TUE MAY 03 2016

Note: "fair" indicates few or no clouds below 12,000 feet with no
significant weather and/or obstructions to visibility. * = Denotes
station may not report precipitation (e.g., rain,snow,etc.),
thunder or fog.

VAZ042-051-052>054-056-032100-
NORTHERN VIRGINIA

CITY           SKY/WX    TMP DP  RH WIND       PRES   REMARKS
WASH NATIONAL  PTSUNNY   72  57  59 N6        29.74F
DULLES         PTSUNNY   69  55  60 N5        29.74F
FORT BELVOIR   FAIR      71  56  59 VRB1      29.73F
QUANTICO       CLOUDY    71  58  63 NE9       29.73F THUNDER
FREDERICKSBRG* PTSUNNY   72  61  67 E6        29.71F
STAFFORD*      PTSUNNY   71  57  61 E10       29.76F
WARRENTON      TSTM      65  56  73 NE5       29.73R
CULPEPER*      TSTM      57  55  90 NW6       29.76R VSB 1
MANASSAS*      PTSUNNY   72  57  60 NE9       29.73F
LEESBURG*      PTSUNNY   70  59  68 NE6       29.75F
WINCHESTER     RAIN      66  55  68 E3        29.73F
FRONT ROYAL*   CLOUDY    63  61  94 CALM      29.73S
LURAY*         MOCLDY    64  63  94 CALM      29.73F
$$

VAZ048-049-060>072-079>083-032100-
CENTRAL AND SOUTH CENTRAL VIRGINIA

CITY           SKY/WX    TMP DP  RH WIND       PRES   REMARKS
RICHMOND       PTSUNNY   73  61  65 S7        29.71F
CHESTERFIELD*  FAIR      77  55  47 SE10      29.72F
PETERSBURG*    PTSUNNY   78  62  59 SW5       29.72F
HANOVER        CLOUDY    74  58  57 VRB3      29.72F
TAPPAHANNOCK*  CLOUDY    73  62  66 NE5       29.73F
QUINTON*       FAIR      74  61  63 E5        29.71F
CHARLOTTSVILLE RAIN      60  56  86 NE7       29.73R
GORDONSVILLE*  FOG       58  57  94 N8G18     29.73R VSB 1
ORANGE*        TSTM      64  55  72 SW21G35   29.79R
LOUISA*        PTSUNNY   79  63  57 S5        29.69F
BUMPASS*       CLOUDY    73  62  69 NE6       29.71F
FARMVILLE*     FAIR      78  59  50 S9        29.69F
CREWE*         MOCLDY    76  61  59 SW3       29.72F
FORT PICKETT*  NOT AVBL
CHASE CITY*    FAIR      76  59  54 W5        29.72F
CLARKSVILLE*   FAIR      77  63  61 S5        29.72F
SOUTH HILL*    FAIR      75  62  63 W3        29.79F
LAWRENCEVILLE* MOCLDY    77  64  64 W7        29.73F
EMPORIA*       PTSUNNY   73  63  68 S7        29.75F
$$

VAZ088>098-032100-
SOUTHEAST VIRGINIA

CITY           SKY/WX    TMP DP  RH WIND       PRES   REMARKS
NORFOLK        CLOUDY    72  65  78 W7        29.74F
VIRGINIA BEACH CLOUDY    74  65  73 NW3       29.74F
NORFOLK NAVAL  CLOUDY    72  65  78 VRB6      29.75F
WEST POINT*    FAIR      75  59  57 S5        29.73F
SALUDA*        CLOUDY    68  65  89 E6        29.74F
NEWPORT NEWS   CLOUDY    72  65  78 SW9       29.74F
LANGLEY AFB    MOSUNNY   73  65  78 SW8       29.74F
FORT EUSTIS    PTSUNNY   73  66  79 SE7       29.72F
WILLIAMSBURG*  FAIR      77  66  69 S8        29.74F
HR EXEC AP*    CLOUDY    72  66  83 W5        29.77F
FRANKLIN*      PTSUNNY   74  65  74 SW5       29.75F
US460-WAKEFLD  FAIR      77  63  61 W8        29.73F
$$

VAZ020-022-025-037-045-032100-
WEST CENTRAL AND SOUTHWEST VIRGINIA

CITY           SKY/WX    TMP DP  RH WIND       PRES   REMARKS
STAUNTON*      FAIR      65  61  86 CALM      29.76F
WAYNESBORO*    CLOUDY    61  58  90 CALM      29.75F
HOT SPRINGS VA FAIR      63  53  69 W9        29.80F
LYNCHBURG      TSTM      61  58  90 CALM      29.77R FOG
DANVILLE       FAIR      76  61  59 S9        29.72F
SOUTH BOSTON*  FAIR      76  59  55 SW7       29.71F
MARTINSVILLE   FAIR      74  61  65 S7        29.74F
ROANOKE        FAIR      73  56  54 NW9       29.75F
BLACKSBURG     FAIR      69  57  66 W8        29.81F
DUBLIN*        PTSUNNY   70  56  60 W10G21    29.81F
MARION*        CLOUDY    63  55  73 W6        29.85F
HILLSVILLE*    FAIR      67  54  62 NW15G25   29.80S
RICHLANDS*     MOCLDY    61  54  77 CALM      29.85F
WISE*          PTSUNNY   61  43  51 W5        29.88F
ABINGDON*      PTSUNNY   70  53  55 W9        29.83F
$$

MDZ021>025-VAZ099-100-032100-
SOUTHERN MARYLAND AND THE DELMARVA PENINSULA

CITY           SKY/WX    TMP DP  RH WIND       PRES   REMARKS
PATUXENT RIVER CLOUDY    67  60  78 NE12      29.74F
BAY BRIDGE APT NOT AVBL
LEONARDTOWN    CLOUDY    64  59  82 NE6       29.76F
DOVER          CLOUDY    58  58 100 N8        29.76F
GEORGETOWN     CLOUDY    63  58  83 NE9       29.76F
EASTON         CLOUDY   N/A N/A N/A N8        29.80F
CAMBRIDGE      CLOUDY    64  59  82 NW3       29.75F
SALISBURY      CLOUDY    71  61  70 NW3       29.73F
OCEAN CITY     CLOUDY    56  55  97 NE9       29.77S FOG
WALLOPS ISLAND CLOUDY    72  63  73 SW7       29.74F
ACCOMACK*      PTSUNNY   70  59  68 NW5       29.75F
$$

NCZ012>017-030>032-032100-
NORTH CENTRAL AND EASTERN NORTH CAROLINA

CITY           SKY/WX    TMP DP  RH WIND       PRES   REMARKS
ROANOKE RAPIDS FAIR      75  64  69 W6        29.74F
RALEIGH        PTSUNNY   78  63  59 W6        29.75F
ELIZABETH CITY CLOUDY    72  65  78 SW12      29.76F
AHOSKIE*       MOSUNNY   74  67  78 CALM      29.75F
EDENTON*       CLOUDY    74  68  82 S8        29.77F
CURRITUCK*     NOT AVBL
KILL DEVIL HLS CLOUDY    73  66  79 SW3       29.77F
MANTEO         NOT AVBL
CAPE HATTERAS  CLOUDY    68  66  93 SW12      29.80S
TARBORO*       MOCLDY    77  67  69 SW7       29.76F
GOLDSBORO      PTSUNNY   76  71  84 SW9       29.74F
WASHINGTON     CLOUDY    73  65  77 SW7       29.76F
GREENVILLE     CLOUDY    75  66  73 SW6       29.79F
NEW BERN       CLOUDY    75  65  70 SW8       29.78F
WILMINGTON     MOSUNNY   73  67  81 SE8       29.78F
$$

VAZ048-032100-
ELSEWHERE

CITY           SKY/WX    TMP DP  RH WIND       PRES   REMARKS
HARRISBURG PA  PTSUNNY   62  54  74 CALM      29.77F
BALTIMORE      PTSUNNY   64  58  80 E9        29.76F
ANNAPOLIS      MOSUNNY   63  57  81 NE8       29.76F
ANDREWS AFB    PTSUNNY   66  59  78 NE14      29.74F
PHILADELPHIA   CLOUDY    58  51  78 NE7       29.81R
HENDERSON NC   MOSUNNY   76  63  63 S5        29.74F
GREENSBORO     TSTM      68  62  81 W17G28    29.78R
ROCKY MOUNT    PTSUNNY   76  66  71 S8        29.75F
$$

VAZ100-032100-
MARINE

STATION/POSITION TIME  TEMP    WIND        PRES    WAVE   SWELL
                       AIR SEA DIR/SP/G            HT/PER HT/PER
                 (UTC) (F)     (DEG/KT/KT) (MB)    (FT/S) (FT/S)
BRANDYWINE LGT   1900   55      30/  6/  7 1009.0R
CAPE MAY NJ      1900   57 58  320/  8/ 10 1008.6R
LEWES DE         1900   56 57   30/  9/ 10 1008.5R
15NM E FENWICK I 1950   53 53              1008.0R   3/ 6
OCEAN-CITY-INLET 1900   56 59   70/  6/  8 1007.5R
WACHAPREAGUE VA  1900   69 66  270/  4/  6 1007.8R
THOMAS POINT MD  2000   59 58   20/ 11/ 13 1009.0F
GOOSES REEF MD   1900   61 60   10/  8/ 10 1009.4R   1
COVE POINT MD    1900   59     350/  8/ 11 1008.7R
SOLOMONS ISLAND  1900   64 62  360/  5/  7   N/A
BISHOPS HEAD MD  1900   68 63   CALM  /  4 1007.4R
PINEY POINT MD   1900          100/  7/  8   N/A
POTOMAC MD       1900   65 64   80/  4/  6 1007.1S   1
CAMBRIDGE MD     1900   65 61  310/  5/  7 1007.3R
LEWISETTA VA     1900   66 63  100/  8/  9 1007.5F
RAPPAHANNOCK LGT 1900          190/  3/  4 1008.7R
STINGRAY PT      1900   67 65   40/  6/  8 1008.6R   0
YORK RVR RNG VA  1900   67     260/  5/  6 1007.3F
YORKTOWN VA      1900   69 64  240/  4/  7 1007.6F
JAMESTOWN VA     1900   70 67  260/  2/  4   N/A     0
DOMINION TERM VA 1900   68     210/  7/  8 1007.9F
KIPTOPEKE VA     1900      63  250/  9/ 12   N/A
CHES BAY BRIDGE  1900   67 63  230/  7/  8 1007.6F
CAPE HENRY VA    1900   69     280/  7/  9   N/A
CHESAPEAKE LGHT  1900   64     190/ 13/ 14 1009.0F
WILLOUBY STN VA  1900   67     230/ 10/ 11 1008.9F
CAPE HENRY BUOY  1912      60                N/A     3/ 6
CAPE CHARLES BUO 1926      59                N/A     2/ 9   2/ 9
OFFSHORE WE BUOY 1921      57                N/A     3/ 5   2/ 6
64NM E OF VA BCH 1950   57 55  190/  8/  8 1008.2F   4/ 6   3/ 6
DUCK PIER NC     1900   69 67  220/ 11/ 13 1008.2F
44100 DUCK FRF   1924      62                N/A     3/ 7
44056 DUCK FRF   1911      58                N/A     2/ 7
OREGON INLET NC  1900   70 71  210/ 12/ 14 1008.5F
HATTERAS NC      1900   68 69  220/ 11/ 16 1008.9F
DIAMOND SHLS NC  1950   71 71  200/ 16/ 19 1008.8F   4/ 7   2/ 7
CAPE LOOKOUT NC  2000   69     190/ 13/ 16 1008.5F
$$



USA.gov is the U.S. government's official web portal to all federal, state and local government web resources and services.